2020-079M (46838 NORAD) Tracking and Keplerian Element Data

This shows tracking and keplerian element data for the satellite.

Feedback or suggestion? Click here.




ElementValue
Catalog46838
Name2020-079M
Epoch Orbit259
Epoch Day328.11383209
Epoch Year2020
RAAN40.0123
Inclination97.265
Eccentricity0.0006441
Argument of Perigee214.0375
Mean Anonmoly234.5416
Mean Motion15.321861
Decay Rate2.635E-05
L11 46838U 20079M 20328.11383209 .00002635 00000-0 87214-4 0 9991
L22 46838 97.2650 40.0123 0006441 214.0375 234.5416 15.32186100 2595

Live tracking and technical data element details for 2020-079M (NORAD 46838). 2020-079M can be tracked NOW for your location showing map with azimuth and elevation plus other details from your city location.

Track the satellite on the map from your city or location and see movement details for azimuth, elevation, latitude, longitude, range, height, and movement on the map or in text.







IsCatalogInMostPopularTable: catalog: 46838, numindb: 4
Update: records affected: 1



GetName: 46838 2020-079M

Hit Count: updated at: Tue, 24 Nov 2020 12:06:11 GMT